User: anonymous   Login
Location: Innerarity Island Observatory
(30.3139°N, 87.4867°W)
Time: 07:17:13
(UTC-05:00)
Language:

JAS-2 - Orbit

View from above orbital plane
View from above orbital plane
View from above satellite
View from above satellite

Ground track
Ground track

The orbit data is extracted from the following two-line orbital elements,

1 24278U 96046B   15247.50757800 -.00000011  00000-0  26810-4 0  9993
2 24278  98.5496 205.6081 0349640 225.0723 253.6775 13.53055759940758
Epoch (UTC): 04 September 2015 12:10:54
Eccentricity: 0.0349640
inclination: 98.5496°
perigee height: 801 km
apogee height: 1321 km
right ascension of ascending node: 205.6081°
argument of perigee: 225.0723°
revolutions per day: 13.53055759
mean anomaly at epoch: 253.6775°
orbit number at epoch: 94075

The dashed part of the orbit path shows where the satellite is in the earth's shadow,  

DLR